Time,TemperatureF,DewpointF,PressureIn,WindDirection,WindDirectionDegrees,WindSpeedMPH,WindSpeedGustMPH,Humidity,HourlyPrecipIn,Conditions,Clouds,dailyrainin,SoftwareType,DateUTC
2013-04-19 00:00:00,53.0,52.2,30.08,South,180,3.0,10.0,97,0.00,,,0.00,Weather View 32 v70,2013-04-19 04:00:00,
2013-04-19 00:05:00,53.0,52.2,30.08,South,180,1.0,10.0,97,0.00,,,0.00,Weather View 32 v70,2013-04-19 04:05:00,
2013-04-19 00:10:00,53.0,52.2,30.07,SSE,157,4.0,10.0,97,0.00,,,0.00,Weather View 32 v70,2013-04-19 04:10:00,
2013-04-19 00:15:00,53.0,52.2,30.07,SSE,157,4.0,10.0,97,0.00,,,0.00,Weather View 32 v70,2013-04-19 04:15:00,
2013-04-19 00:20:00,53.0,52.2,30.07,East,90,0.0,10.0,97,0.00,,,0.00,Weather View 32 v70,2013-04-19 04:20:00,
2013-04-19 00:25:00,53.0,52.4,30.07,SSE,157,3.0,10.0,98,0.00,,,0.00,Weather View 32 v70,2013-04-19 04:25:00,
2013-04-19 00:30:00,53.0,52.2,30.06,SE,135,5.0,10.0,97,0.00,,,0.00,Weather View 32 v70,2013-04-19 04:30:00,
2013-04-19 00:35:00,53.0,52.4,30.06,South,180,9.0,10.0,98,0.00,,,0.00,Weather View 32 v70,2013-04-19 04:35:00,
2013-04-19 00:40:00,53.0,52.2,30.05,South,180,0.0,10.0,97,0.00,,,0.00,Weather View 32 v70,2013-04-19 04:40:00,
2013-04-19 00:50:00,53.0,52.4,30.05,WSW,247,0.0,10.0,98,0.00,,,0.00,Weather View 32 v70,2013-04-19 04:50:00,
2013-04-19 00:55:00,53.0,52.4,30.05,SW,225,1.0,10.0,98,0.00,,,0.00,Weather View 32 v70,2013-04-19 04:55:00,
2013-04-19 01:00:00,53.0,52.4,30.05,SW,225,0.0,10.0,98,0.00,,,0.00,Weather View 32 v70,2013-04-19 05:00:00,
2013-04-19 01:05:00,53.0,52.4,30.05,South,180,0.0,10.0,98,0.00,,,0.00,Weather View 32 v70,2013-04-19 05:05:00,
2013-04-19 01:10:00,53.0,52.4,30.03,SSW,202,0.0,10.0,98,0.00,,,0.00,Weather View 32 v70,2013-04-19 05:10:00,
2013-04-19 01:15:00,53.0,52.4,30.03,WSW,247,0.0,10.0,98,0.00,,,0.00,Weather View 32 v70,2013-04-19 05:15:00,
2013-04-19 01:25:00,53.0,52.4,30.03,WSW,247,0.0,10.0,98,0.00,,,0.00,Weather View 32 v70,2013-04-19 05:25:00,
2013-04-19 01:30:00,53.0,52.4,30.03,WSW,247,0.0,10.0,98,0.00,,,0.00,Weather View 32 v70,2013-04-19 05:30:00,
2013-04-19 01:35:00,53.0,52.4,30.03,SW,225,0.0,10.0,98,0.00,,,0.00,Weather View 32 v70,2013-04-19 05:35:00,
2013-04-19 01:40:00,53.0,52.4,30.03,SSW,202,0.0,10.0,98,0.00,,,0.00,Weather View 32 v70,2013-04-19 05:40:00,
2013-04-19 01:45:00,53.0,52.4,30.03,SSW,202,0.0,10.0,98,0.00,,,0.00,Weather View 32 v70,2013-04-19 05:45:00,
2013-04-19 01:50:00,53.0,52.4,30.03,WSW,247,0.0,10.0,98,0.00,,,0.00,Weather View 32 v70,2013-04-19 05:50:00,
2013-04-19 02:00:00,53.0,52.4,30.03,SW,225,0.0,10.0,98,0.00,,,0.00,Weather View 32 v70,2013-04-19 06:00:00,
2013-04-19 02:05:00,53.0,52.4,30.03,South,180,0.0,5.0,98,0.00,,,0.00,Weather View 32 v70,2013-04-19 06:05:00,
2013-04-19 02:10:00,53.0,52.4,30.02,SW,225,0.0,5.0,98,0.00,,,0.00,Weather View 32 v70,2013-04-19 06:10:00,
2013-04-19 02:15:00,53.0,52.4,30.02,SW,225,0.0,5.0,98,0.00,,,0.00,Weather View 32 v70,2013-04-19 06:15:00,
2013-04-19 02:20:00,53.0,52.4,30.01,SSW,202,2.0,5.0,98,0.00,,,0.00,Weather View 32 v70,2013-04-19 06:20:00,
2013-04-19 02:30:00,53.0,52.4,30.01,South,180,2.0,7.0,98,0.00,,,0.00,Weather View 32 v70,2013-04-19 06:30:00,
2013-04-19 02:35:00,53.0,52.4,30.01,South,180,0.0,7.0,98,0.00,,,0.00,Weather View 32 v70,2013-04-19 06:35:00,
2013-04-19 02:40:00,53.0,52.4,30.01,SSW,202,1.0,7.0,98,0.00,,,0.00,Weather View 32 v70,2013-04-19 06:40:00,
2013-04-19 02:45:00,53.0,52.4,30.01,SW,225,0.0,7.0,98,0.00,,,0.00,Weather View 32 v70,2013-04-19 06:45:00,
2013-04-19 02:50:00,53.0,52.4,30.00,SSW,202,0.0,7.0,98,0.00,,,0.00,Weather View 32 v70,2013-04-19 06:50:00,
2013-04-19 02:55:00,53.0,52.4,30.00,SSE,157,1.0,7.0,98,0.00,,,0.00,Weather View 32 v70,2013-04-19 06:55:00,
2013-04-19 03:05:00,53.0,52.4,29.99,SSW,202,4.0,8.0,98,0.00,,,0.00,Weather View 32 v70,2013-04-19 07:05:00,
2013-04-19 03:10:00,53.0,52.4,29.99,SW,225,0.0,8.0,98,0.00,,,0.00,Weather View 32 v70,2013-04-19 07:10:00,
2013-04-19 03:15:00,53.0,52.2,29.99,SE,135,0.0,8.0,97,0.00,,,0.00,Weather View 32 v70,2013-04-19 07:15:00,
2013-04-19 03:20:00,54.0,53.4,29.97,ESE,112,0.0,8.0,98,0.00,,,0.00,Weather View 32 v70,2013-04-19 07:20:00,
2013-04-19 03:25:00,54.0,53.2,29.97,SSW,202,6.0,8.0,97,0.00,,,0.00,Weather View 32 v70,2013-04-19 07:25:00,
2013-04-19 03:35:00,54.0,52.9,29.97,ESE,112,6.0,10.0,96,0.00,,,0.00,Weather View 32 v70,2013-04-19 07:35:00,
2013-04-19 03:40:00,54.0,53.2,29.95,ESE,112,4.0,10.0,97,0.00,,,0.00,Weather View 32 v70,2013-04-19 07:40:00,
2013-04-19 03:45:00,54.0,52.9,29.95,South,180,1.0,10.0,96,0.00,,,0.00,Weather View 32 v70,2013-04-19 07:45:00,
2013-04-19 03:50:00,54.0,52.9,29.95,ESE,112,0.0,10.0,96,0.00,,,0.00,Weather View 32 v70,2013-04-19 07:50:00,
2013-04-19 03:55:00,54.0,52.9,29.95,SSE,157,0.0,10.0,96,0.00,,,0.00,Weather View 32 v70,2013-04-19 07:55:00,
2013-04-19 04:00:00,54.0,52.9,29.94,ESE,112,4.0,10.0,96,0.00,,,0.00,Weather View 32 v70,2013-04-19 08:00:00,
2013-04-19 04:05:00,54.0,52.9,29.94,SSW,202,0.0,10.0,96,0.00,,,0.00,Weather View 32 v70,2013-04-19 08:05:00,
2013-04-19 04:15:00,54.0,52.6,29.94,SSW,202,1.0,10.0,95,0.00,,,0.00,Weather View 32 v70,2013-04-19 08:15:00,
2013-04-19 04:20:00,55.0,53.9,29.93,SE,135,2.0,10.0,96,0.00,,,0.00,Weather View 32 v70,2013-04-19 08:20:00,
2013-04-19 04:25:00,55.0,53.9,29.93,WSW,247,0.0,10.0,96,0.00,,,0.00,Weather View 32 v70,2013-04-19 08:25:00,
2013-04-19 04:30:00,55.0,54.2,29.94,WSW,247,0.0,10.0,97,0.00,,,0.00,Weather View 32 v70,2013-04-19 08:30:00,
2013-04-19 04:35:00,55.0,53.9,29.94,SW,225,0.0,8.0,96,0.00,,,0.00,Weather View 32 v70,2013-04-19 08:35:00,
2013-04-19 04:45:00,55.0,53.9,29.94,SSW,202,0.0,8.0,96,0.00,,,0.00,Weather View 32 v70,2013-04-19 08:45:00,
2013-04-19 04:50:00,55.0,54.2,29.94,SW,225,0.0,7.0,97,0.00,,,0.00,Weather View 32 v70,2013-04-19 08:50:00,
2013-04-19 04:55:00,55.0,53.9,29.94,SSW,202,0.0,7.0,96,0.00,,,0.00,Weather View 32 v70,2013-04-19 08:55:00,
2013-04-19 05:00:00,55.0,53.9,29.94,SSW,202,0.0,7.0,96,0.00,,,0.00,Weather View 32 v70,2013-04-19 09:00:00,
2013-04-19 05:05:00,54.0,52.6,29.94,SSE,157,0.0,6.0,95,0.00,,,0.00,Weather View 32 v70,2013-04-19 09:05:00,
2013-04-19 05:10:00,55.0,53.9,29.92,SSW,202,1.0,6.0,96,0.00,,,0.00,Weather View 32 v70,2013-04-19 09:10:00,
2013-04-19 05:17:00,54.0,52.6,29.92,SSW,202,0.0,6.0,95,0.00,,,0.00,Weather View 32 v70,2013-04-19 09:17:00,
2013-04-19 05:25:00,55.0,53.3,29.91,SSW,202,0.0,8.0,94,0.00,,,0.00,Weather View 32 v70,2013-04-19 09:25:00,
2013-04-19 05:30:00,55.0,53.3,29.91,SW,225,0.0,8.0,94,0.00,,,0.00,Weather View 32 v70,2013-04-19 09:30:00,
2013-04-19 05:35:00,55.0,53.3,29.91,SW,225,0.0,10.0,94,0.00,,,0.00,Weather View 32 v70,2013-04-19 09:35:00,
2013-04-19 05:40:00,55.0,53.3,29.91,South,180,5.0,10.0,94,0.00,,,0.00,Weather View 32 v70,2013-04-19 09:40:00,
2013-04-19 05:45:00,55.0,53.0,29.91,South,180,1.0,10.0,93,0.00,,,0.00,Weather View 32 v70,2013-04-19 09:45:00,
2013-04-19 05:55:00,56.0,54.0,29.91,SW,225,1.0,10.0,93,0.00,,,0.00,Weather View 32 v70,2013-04-19 09:55:00,
2013-04-19 06:00:00,56.0,54.0,29.91,South,180,4.0,10.0,93,0.00,,,0.00,Weather View 32 v70,2013-04-19 10:00:00,
2013-04-19 06:05:00,56.0,54.0,29.91,SSW,202,0.0,10.0,93,0.00,,,0.00,Weather View 32 v70,2013-04-19 10:05:00,
2013-04-19 06:10:00,57.0,55.0,29.90,SSW,202,3.0,10.0,93,0.00,,,0.00,Weather View 32 v70,2013-04-19 10:10:00,
2013-04-19 06:15:00,57.0,55.0,29.90,South,180,2.0,11.0,93,0.00,,,0.00,Weather View 32 v70,2013-04-19 10:15:00,
2013-04-19 06:20:00,57.0,55.0,29.89,South,180,3.0,11.0,93,0.00,,,0.00,Weather View 32 v70,2013-04-19 10:20:00,
2013-04-19 06:30:00,57.0,55.0,29.89,SSE,157,6.0,11.0,93,0.00,,,0.00,Weather View 32 v70,2013-04-19 10:30:00,
2013-04-19 06:35:00,57.0,54.7,29.89,SSW,202,7.0,11.0,92,0.00,,,0.00,Weather View 32 v70,2013-04-19 10:35:00,
2013-04-19 06:40:00,57.0,55.0,29.89,SSW,202,1.0,11.0,93,0.00,,,0.00,Weather View 32 v70,2013-04-19 10:40:00,
2013-04-19 06:45:00,58.0,55.7,29.89,South,180,4.0,11.0,92,0.00,,,0.00,Weather View 32 v70,2013-04-19 10:45:00,
2013-04-19 06:50:00,58.0,55.7,29.89,SSW,202,0.0,11.0,92,0.00,,,0.00,Weather View 32 v70,2013-04-19 10:50:00,
2013-04-19 07:00:00,58.0,55.7,29.90,South,180,8.0,11.0,92,0.00,,,0.00,Weather View 32 v70,2013-04-19 11:00:00,
2013-04-19 07:10:00,58.0,56.0,29.90,SW,225,5.0,11.0,93,0.00,,,0.00,Weather View 32 v70,2013-04-19 11:10:00,
2013-04-19 07:15:00,58.0,55.4,29.90,SSW,202,0.0,11.0,91,0.00,,,0.00,Weather View 32 v70,2013-04-19 11:15:00,
2013-04-19 07:20:00,59.0,57.3,29.90,SSE,157,0.0,11.0,94,0.00,,,0.00,Weather View 32 v70,2013-04-19 11:20:00,
2013-04-19 07:25:00,59.0,57.3,29.90,SW,225,2.0,11.0,94,0.00,,,0.00,Weather View 32 v70,2013-04-19 11:25:00,
2013-04-19 07:35:00,59.0,57.9,29.90,SSW,202,9.0,10.0,96,0.00,,,0.00,Weather View 32 v70,2013-04-19 11:35:00,
2013-04-19 07:40:00,60.0,59.1,29.89,SSW,202,0.0,10.0,97,0.00,,,0.00,Weather View 32 v70,2013-04-19 11:40:00,
2013-04-19 07:45:00,60.0,59.1,29.89,South,180,0.0,10.0,97,0.00,,,0.00,Weather View 32 v70,2013-04-19 11:45:00,
2013-04-19 07:50:00,60.0,59.4,29.89,SW,225,0.0,10.0,98,0.00,,,0.00,Weather View 32 v70,2013-04-19 11:50:00,
2013-04-19 07:55:00,60.0,59.1,29.89,South,180,2.0,10.0,97,0.00,,,0.00,Weather View 32 v70,2013-04-19 11:55:00,
2013-04-19 08:00:00,60.0,59.4,29.88,SW,225,1.0,10.0,98,0.00,,,0.00,Weather View 32 v70,2013-04-19 12:00:00,
2013-04-19 08:05:00,60.0,59.4,29.88,SW,225,0.0,10.0,98,0.00,,,0.00,Weather View 32 v70,2013-04-19 12:05:00,
2013-04-19 08:15:00,60.0,59.4,29.88,SSW,202,0.0,10.0,98,0.00,,,0.00,Weather View 32 v70,2013-04-19 12:15:00,
2013-04-19 08:20:00,60.0,59.7,29.87,South,180,5.0,10.0,99,0.00,,,0.00,Weather View 32 v70,2013-04-19 12:20:00,
2013-04-19 08:25:00,60.0,59.4,29.87,SW,225,2.0,10.0,98,0.00,,,0.00,Weather View 32 v70,2013-04-19 12:25:00,
2013-04-19 08:30:00,60.0,59.7,29.87,SSW,202,0.0,10.0,99,0.00,,,0.00,Weather View 32 v70,2013-04-19 12:30:00,
2013-04-19 08:40:00,60.0,59.7,29.87,SSW,202,0.0,10.0,99,0.00,,,0.00,Weather View 32 v70,2013-04-19 12:40:00,
2013-04-19 08:45:00,60.0,59.4,29.87,SW,225,0.0,10.0,98,0.00,,,0.00,Weather View 32 v70,2013-04-19 12:45:00,
2013-04-19 08:50:00,61.0,60.4,29.86,WSW,247,2.0,10.0,98,0.00,,,0.00,Weather View 32 v70,2013-04-19 12:50:00,
2013-04-19 08:55:00,60.0,59.4,29.86,SW,225,0.0,10.0,98,0.00,,,0.00,Weather View 32 v70,2013-04-19 12:55:00,
2013-04-19 09:00:00,60.0,59.7,29.87,WSW,247,5.0,10.0,99,0.00,,,0.00,Weather View 32 v70,2013-04-19 13:00:00,
2013-04-19 09:05:00,60.0,59.4,29.87,SW,225,3.0,10.0,98,0.00,,,0.00,Weather View 32 v70,2013-04-19 13:05:00,
2013-04-19 09:15:00,61.0,60.4,29.86,SSW,202,9.0,10.0,98,0.00,,,0.00,Weather View 32 v70,2013-04-19 13:15:00,
2013-04-19 09:20:00,62.0,61.4,29.84,SSW,202,5.0,10.0,98,0.00,,,0.00,Weather View 32 v70,2013-04-19 13:20:00,
2013-04-19 09:30:00,63.0,62.1,29.84,West,270,0.0,15.0,97,0.00,,,0.00,Weather View 32 v70,2013-04-19 13:30:00,
2013-04-19 09:35:00,63.0,61.8,29.84,SW,225,1.0,15.0,96,0.00,,,0.00,Weather View 32 v70,2013-04-19 13:35:00,
2013-04-19 09:40:00,63.0,61.5,29.84,SSE,157,5.0,15.0,95,0.00,,,0.00,Weather View 32 v70,2013-04-19 13:40:00,
2013-04-19 09:50:00,63.0,61.5,29.83,SW,225,6.0,16.0,95,0.00,,,0.00,Weather View 32 v70,2013-04-19 13:50:00,
2013-04-19 09:55:00,63.0,61.5,29.83,SSE,157,9.0,17.0,95,0.00,,,0.00,Weather View 32 v70,2013-04-19 13:55:00,
2013-04-19 10:00:00,64.0,62.5,29.82,SW,225,2.0,17.0,95,0.00,,,0.00,Weather View 32 v70,2013-04-19 14:00:00,
2013-04-19 10:05:00,64.0,62.5,29.82,South,180,6.0,17.0,95,0.00,,,0.00,Weather View 32 v70,2013-04-19 14:05:00,
2013-04-19 10:10:00,64.0,62.5,29.81,SW,225,3.0,17.0,95,0.00,,,0.00,Weather View 32 v70,2013-04-19 14:10:00,
2013-04-19 10:15:00,64.0,62.5,29.81,SW,225,5.0,17.0,95,0.00,,,0.00,Weather View 32 v70,2013-04-19 14:15:00,
2013-04-19 10:20:00,65.0,62.9,29.81,SW,225,0.0,17.0,93,0.00,,,0.00,Weather View 32 v70,2013-04-19 14:20:00,
2013-04-19 10:30:00,65.0,62.9,29.81,WSW,247,4.0,17.0,93,0.00,,,0.00,Weather View 32 v70,2013-04-19 14:30:00,
2013-04-19 10:35:00,65.0,62.9,29.81,South,180,3.0,17.0,93,0.00,,,0.00,Weather View 32 v70,2013-04-19 14:35:00,
2013-04-19 10:40:00,65.0,62.6,29.80,SSW,202,0.0,17.0,92,0.00,,,0.00,Weather View 32 v70,2013-04-19 14:40:00,
2013-04-19 10:45:00,65.0,62.6,29.80,ESE,112,0.0,17.0,92,0.00,,,0.00,Weather View 32 v70,2013-04-19 14:45:00,
2013-04-19 10:55:00,66.0,63.3,29.79,South,180,2.0,17.0,91,0.00,,,0.00,Weather View 32 v70,2013-04-19 14:55:00,
2013-04-19 11:00:00,66.0,63.0,29.79,WSW,247,10.0,17.0,90,0.00,,,0.00,Weather View 32 v70,2013-04-19 15:00:00,
2013-04-19 11:05:00,66.0,63.3,29.79,SSE,157,2.0,19.0,91,0.00,,,0.00,Weather View 32 v70,2013-04-19 15:05:00,
2013-04-19 11:10:00,66.0,63.0,29.78,SW,225,5.0,19.0,90,0.00,,,0.00,Weather View 32 v70,2013-04-19 15:10:00,
2013-04-19 11:15:00,66.0,63.3,29.78,SW,225,2.0,19.0,91,0.00,,,0.00,Weather View 32 v70,2013-04-19 15:15:00,
2013-04-19 11:20:00,67.0,64.0,29.77,SSW,202,10.0,19.0,90,0.00,,,0.00,Weather View 32 v70,2013-04-19 15:20:00,
2013-04-19 11:30:00,67.0,63.6,29.77,SE,135,7.0,20.0,89,0.00,,,0.00,Weather View 32 v70,2013-04-19 15:30:00,
2013-04-19 11:35:00,67.0,64.0,29.77,WSW,247,5.0,20.0,90,0.00,,,0.00,Weather View 32 v70,2013-04-19 15:35:00,
2013-04-19 11:40:00,67.0,64.9,29.77,WSW,247,11.0,20.0,93,0.00,,,0.00,Weather View 32 v70,2013-04-19 15:40:00,
2013-04-19 11:50:00,66.0,64.5,29.78,SSW,202,6.0,20.0,95,0.00,,,0.00,Weather View 32 v70,2013-04-19 15:50:00,
2013-04-19 11:55:00,66.0,64.8,29.78,SSW,202,7.0,20.0,96,0.00,,,0.00,Weather View 32 v70,2013-04-19 15:55:00,
2013-04-19 12:00:00,66.0,64.5,29.76,SSW,202,6.0,20.0,95,0.00,,,0.00,Weather View 32 v70,2013-04-19 16:00:00,
2013-04-19 12:10:00,66.0,64.5,29.76,SSW,202,1.0,20.0,95,0.00,,,0.00,Weather View 32 v70,2013-04-19 16:10:00,
2013-04-19 12:15:00,66.0,64.5,29.76,SW,225,5.0,20.0,95,0.00,,,0.00,Weather View 32 v70,2013-04-19 16:15:00,
2013-04-19 12:20:00,66.0,64.5,29.76,SSW,202,5.0,20.0,95,0.00,,,0.00,Weather View 32 v70,2013-04-19 16:20:00,
2013-04-19 12:30:00,66.0,64.5,29.75,South,180,12.0,20.0,95,0.00,,,0.00,Weather View 32 v70,2013-04-19 16:30:00,
2013-04-19 12:35:00,66.0,64.5,29.75,SW,225,7.0,20.0,95,0.00,,,0.00,Weather View 32 v70,2013-04-19 16:35:00,
2013-04-19 12:40:00,67.0,64.9,29.73,SW,225,2.0,20.0,93,0.00,,,0.00,Weather View 32 v70,2013-04-19 16:40:00,
2013-04-19 12:45:00,67.0,64.3,29.73,SSW,202,5.0,20.0,91,0.00,,,0.00,Weather View 32 v70,2013-04-19 16:45:00,
2013-04-19 12:50:00,67.0,64.3,29.74,SE,135,5.0,20.0,91,0.00,,,0.00,Weather View 32 v70,2013-04-19 16:50:00,
2013-04-19 12:55:00,67.0,64.3,29.74,SW,225,3.0,20.0,91,0.00,,,0.00,Weather View 32 v70,2013-04-19 16:55:00,
2013-04-19 13:05:00,68.0,64.9,29.73,SSW,202,3.0,20.0,90,0.00,,,0.00,Weather View 32 v70,2013-04-19 17:05:00,
2013-04-19 13:15:00,68.0,64.3,29.72,SW,225,2.0,20.0,88,0.00,,,0.00,Weather View 32 v70,2013-04-19 17:15:00,
2013-04-19 13:20:00,70.0,65.6,29.70,SSW,202,1.0,18.0,86,0.00,,,0.00,Weather View 32 v70,2013-04-19 17:20:00,
2013-04-19 13:25:00,71.0,65.6,29.70,SSW,202,6.0,18.0,83,0.00,,,0.00,Weather View 32 v70,2013-04-19 17:25:00,
2013-04-19 13:30:00,72.0,64.7,29.69,SSE,157,10.0,18.0,78,0.00,,,0.00,Weather View 32 v70,2013-04-19 17:30:00,
2013-04-19 13:35:00,71.0,64.5,29.69,SW,225,8.0,18.0,80,0.00,,,0.00,Weather View 32 v70,2013-04-19 17:35:00,
2013-04-19 13:45:00,70.0,65.6,29.69,South,180,2.0,19.0,86,0.00,,,0.00,Weather View 32 v70,2013-04-19 17:45:00,
2013-04-19 13:50:00,69.0,65.0,29.71,SW,225,2.0,19.0,87,0.00,,,0.00,Weather View 32 v70,2013-04-19 17:50:00,
2013-04-19 13:55:00,69.0,65.9,29.71,SW,225,7.0,19.0,90,0.00,,,0.00,Weather View 32 v70,2013-04-19 17:55:00,
2013-04-19 14:00:00,69.0,65.3,29.70,South,180,9.0,19.0,88,0.00,,,0.00,Weather View 32 v70,2013-04-19 18:00:00,
2013-04-19 14:05:00,69.0,65.6,29.70,WSW,247,6.0,19.0,89,0.00,,,0.00,Weather View 32 v70,2013-04-19 18:05:00,
2013-04-19 14:10:00,69.0,65.3,29.71,SSW,202,8.0,19.0,88,0.00,,,0.00,Weather View 32 v70,2013-04-19 18:10:00,
2013-04-19 14:15:00,69.0,65.9,29.71,WSW,247,2.0,19.0,90,0.00,,,0.00,Weather View 32 v70,2013-04-19 18:15:00,
2013-04-19 14:23:00,69.0,65.9,29.70,SSW,202,2.0,19.0,90,0.00,,,0.00,Weather View 32 v70,2013-04-19 18:23:00,
2013-04-19 14:30:00,68.0,65.3,29.69,SSW,202,2.0,19.0,91,0.00,,,0.00,Weather View 32 v70,2013-04-19 18:30:00,
2013-04-19 14:35:00,69.0,65.9,29.69,SW,225,5.0,19.0,90,0.00,,,0.00,Weather View 32 v70,2013-04-19 18:35:00,
2013-04-19 14:40:00,70.0,65.9,29.68,ESE,112,5.0,19.0,87,0.00,,,0.00,Weather View 32 v70,2013-04-19 18:40:00,
2013-04-19 14:45:00,71.0,66.6,29.68,SSW,202,12.0,19.0,86,0.00,,,0.00,Weather View 32 v70,2013-04-19 18:45:00,
2013-04-19 14:55:00,71.0,65.2,29.67,SSW,202,5.0,16.0,82,0.00,,,0.00,Weather View 32 v70,2013-04-19 18:55:00,
2013-04-19 15:00:00,71.0,64.9,29.67,SSW,202,2.0,16.0,81,0.00,,,0.00,Weather View 32 v70,2013-04-19 19:00:00,
2013-04-19 15:05:00,71.0,65.2,29.67,South,180,2.0,16.0,82,0.00,,,0.00,Weather View 32 v70,2013-04-19 19:05:00,
2013-04-19 15:10:00,71.0,65.2,29.66,SW,225,3.0,16.0,82,0.00,,,0.00,Weather View 32 v70,2013-04-19 19:10:00,
2013-04-19 15:15:00,71.0,65.9,29.66,SSW,202,2.0,16.0,84,0.00,,,0.00,Weather View 32 v70,2013-04-19 19:15:00,
2013-04-19 15:20:00,71.0,65.6,29.65,South,180,0.0,15.0,83,0.00,,,0.00,Weather View 32 v70,2013-04-19 19:20:00,
2013-04-19 15:30:00,71.0,65.6,29.63,WSW,247,1.0,15.0,83,0.00,,,0.00,Weather View 32 v70,2013-04-19 19:30:00,
2013-04-19 15:35:00,71.0,65.2,29.63,SSE,157,5.0,15.0,82,0.00,,,0.00,Weather View 32 v70,2013-04-19 19:35:00,
2013-04-19 15:40:00,72.0,65.5,29.62,South,180,2.0,15.0,80,0.00,,,0.00,Weather View 32 v70,2013-04-19 19:40:00,
2013-04-19 15:45:00,72.0,65.5,29.62,SW,225,1.0,15.0,80,0.00,,,0.00,Weather View 32 v70,2013-04-19 19:45:00,
2013-04-19 15:50:00,72.0,64.7,29.61,West,270,0.0,13.0,78,0.00,,,0.00,Weather View 32 v70,2013-04-19 19:50:00,
2013-04-19 15:55:00,72.0,64.7,29.61,SSW,202,0.0,13.0,78,0.00,,,0.00,Weather View 32 v70,2013-04-19 19:55:00,
2013-04-19 16:00:00,72.0,64.4,29.60,SSW,202,16.0,18.0,77,0.00,,,0.00,Weather View 32 v70,2013-04-19 20:00:00,
2013-04-19 16:10:00,72.0,64.7,29.59,South,180,3.0,18.0,78,0.00,,,0.00,Weather View 32 v70,2013-04-19 20:10:00,
2013-04-19 16:15:00,72.0,64.7,29.59,South,180,3.0,18.0,78,0.00,,,0.00,Weather View 32 v70,2013-04-19 20:15:00,
2013-04-19 16:20:00,72.0,64.7,29.57,South,180,1.0,18.0,78,0.00,,,0.00,Weather View 32 v70,2013-04-19 20:20:00,
2013-04-19 16:25:00,72.0,64.7,29.57,South,180,5.0,18.0,78,0.00,,,0.00,Weather View 32 v70,2013-04-19 20:25:00,
2013-04-19 16:30:00,73.0,65.3,29.56,SSE,157,8.0,18.0,77,0.00,,,0.00,Weather View 32 v70,2013-04-19 20:30:00,
2013-04-19 16:40:00,73.0,65.3,29.55,South,180,1.0,18.0,77,0.00,,,0.00,Weather View 32 v70,2013-04-19 20:40:00,
2013-04-19 16:45:00,72.0,64.7,29.55,South,180,6.0,18.0,78,0.00,,,0.00,Weather View 32 v70,2013-04-19 20:45:00,
2013-04-19 16:50:00,72.0,64.7,29.56,SSE,157,0.0,18.0,78,0.00,,,0.00,Weather View 32 v70,2013-04-19 20:50:00,
2013-04-19 16:55:00,72.0,65.1,29.56,South,180,5.0,18.0,79,0.00,,,0.00,Weather View 32 v70,2013-04-19 20:55:00,
2013-04-19 17:00:00,73.0,65.7,29.55,South,180,11.0,18.0,78,0.00,,,0.00,Weather View 32 v70,2013-04-19 21:00:00,
2013-04-19 17:05:00,72.0,65.1,29.55,SSW,202,4.0,18.0,79,0.00,,,0.00,Weather View 32 v70,2013-04-19 21:05:00,
2013-04-19 17:10:00,73.0,65.7,29.55,SSE,157,7.0,18.0,78,0.00,,,0.00,Weather View 32 v70,2013-04-19 21:10:00,
2013-04-19 17:20:00,73.0,65.7,29.55,SW,225,6.0,18.0,78,0.00,,,0.00,Weather View 32 v70,2013-04-19 21:20:00,
2013-04-19 17:25:00,72.0,65.1,29.55,SW,225,5.0,21.0,79,0.00,,,0.00,Weather View 32 v70,2013-04-19 21:25:00,
2013-04-19 17:30:00,72.0,64.7,29.54,South,180,5.0,21.0,78,0.00,,,0.00,Weather View 32 v70,2013-04-19 21:30:00,
2013-04-19 17:35:00,72.0,65.5,29.54,SSW,202,6.0,21.0,80,0.00,,,0.00,Weather View 32 v70,2013-04-19 21:35:00,
2013-04-19 17:40:00,72.0,65.1,29.55,SSW,202,6.0,21.0,79,0.00,,,0.00,Weather View 32 v70,2013-04-19 21:40:00,
2013-04-19 17:45:00,72.0,65.5,29.55,South,180,12.0,21.0,80,0.00,,,0.00,Weather View 32 v70,2013-04-19 21:45:00,
2013-04-19 17:50:00,72.0,65.5,29.56,SSE,157,16.0,21.0,80,0.00,,,0.00,Weather View 32 v70,2013-04-19 21:50:00,
2013-04-19 18:00:00,71.0,64.5,29.56,WNW,292,8.0,21.0,80,0.00,,,0.00,Weather View 32 v70,2013-04-19 22:00:00,
2013-04-19 18:05:00,71.0,65.2,29.56,ESE,112,7.0,21.0,82,0.00,,,0.00,Weather View 32 v70,2013-04-19 22:05:00,
2013-04-19 18:10:00,71.0,64.9,29.55,SE,135,3.0,21.0,81,0.00,,,0.00,Weather View 32 v70,2013-04-19 22:10:00,
2013-04-19 18:15:00,71.0,65.2,29.55,South,180,0.0,21.0,82,0.00,,,0.00,Weather View 32 v70,2013-04-19 22:15:00,
2013-04-19 18:20:00,71.0,64.9,29.55,SSE,157,3.0,21.0,81,0.00,,,0.00,Weather View 32 v70,2013-04-19 22:20:00,
2013-04-19 18:25:00,71.0,65.2,29.55,South,180,11.0,21.0,82,0.00,,,0.00,Weather View 32 v70,2013-04-19 22:25:00,
2013-04-19 18:35:00,70.0,64.6,29.55,SSW,202,0.0,19.0,83,0.00,,,0.00,Weather View 32 v70,2013-04-19 22:35:00,
2013-04-19 18:40:00,71.0,65.2,29.54,SSW,202,3.0,19.0,82,0.00,,,0.00,Weather View 32 v70,2013-04-19 22:40:00,
2013-04-19 18:45:00,70.0,64.9,29.54,SSW,202,1.0,19.0,84,0.00,,,0.00,Weather View 32 v70,2013-04-19 22:45:00,
2013-04-19 18:50:00,70.0,64.6,29.55,SW,225,3.0,18.0,83,0.00,,,0.00,Weather View 32 v70,2013-04-19 22:50:00,
2013-04-19 18:55:00,70.0,64.9,29.55,South,180,4.0,18.0,84,0.00,,,0.00,Weather View 32 v70,2013-04-19 22:55:00,
2013-04-19 19:05:00,70.0,65.6,29.53,SW,225,0.0,18.0,86,0.00,,,0.00,Weather View 32 v70,2013-04-19 23:05:00,
2013-04-19 19:10:00,70.0,65.6,29.53,South,180,6.0,18.0,86,0.00,,,0.00,Weather View 32 v70,2013-04-19 23:10:00,
2013-04-19 19:15:00,69.0,64.6,29.53,SW,225,2.0,18.0,86,0.00,,,0.00,Weather View 32 v70,2013-04-19 23:15:00,
2013-04-19 19:20:00,69.0,64.3,29.53,SSW,202,0.0,17.0,85,0.00,,,0.00,Weather View 32 v70,2013-04-19 23:20:00,
2013-04-19 19:26:00,69.0,64.6,29.53,SSW,202,13.0,17.0,86,0.00,,,0.00,Weather View 32 v70,2013-04-19 23:26:00,
2013-04-19 19:35:00,68.0,64.0,29.53,South,180,1.0,17.0,87,0.00,,,0.00,Weather View 32 v70,2013-04-19 23:35:00,
2013-04-19 19:40:00,68.0,64.0,29.53,SW,225,1.0,17.0,87,0.00,,,0.00,Weather View 32 v70,2013-04-19 23:40:00,
2013-04-19 19:45:00,68.0,64.3,29.53,SSW,202,3.0,17.0,88,0.00,,,0.00,Weather View 32 v70,2013-04-19 23:45:00,
2013-04-19 19:55:00,68.0,64.6,29.53,SSE,157,0.0,17.0,89,0.00,,,0.00,Weather View 32 v70,2013-04-19 23:55:00,
2013-04-19 20:00:00,68.0,64.3,29.53,SW,225,2.0,17.0,88,0.00,,,0.00,Weather View 32 v70,2013-04-20 00:00:00,
2013-04-19 20:05:00,68.0,64.6,29.53,WSW,247,2.0,17.0,89,0.00,,,0.00,Weather View 32 v70,2013-04-20 00:05:00,
2013-04-19 20:10:00,68.0,64.3,29.52,WSW,247,7.0,20.0,88,0.00,,,0.00,Weather View 32 v70,2013-04-20 00:10:00,
2013-04-19 20:15:00,68.0,64.6,29.52,SSW,202,0.0,20.0,89,0.00,,,0.00,Weather View 32 v70,2013-04-20 00:15:00,
2013-04-19 20:25:00,68.0,64.3,29.52,SSW,202,10.0,20.0,88,0.00,,,0.00,Weather View 32 v70,2013-04-20 00:25:00,
2013-04-19 20:30:00,68.0,64.3,29.52,SW,225,2.0,20.0,88,0.00,,,0.00,Weather View 32 v70,2013-04-20 00:30:00,
2013-04-19 20:35:00,68.0,64.6,29.52,SSW,202,5.0,20.0,89,0.00,,,0.00,Weather View 32 v70,2013-04-20 00:35:00,
2013-04-19 20:40:00,68.0,64.3,29.51,South,180,3.0,20.0,88,0.00,,,0.00,Weather View 32 v70,2013-04-20 00:40:00,
2013-04-19 20:50:00,68.0,64.6,29.51,SSW,202,8.0,20.0,89,0.00,,,0.00,Weather View 32 v70,2013-04-20 00:50:00,
2013-04-19 20:55:00,68.0,64.9,29.51,SSW,202,8.0,20.0,90,0.00,,,0.00,Weather View 32 v70,2013-04-20 00:55:00,
2013-04-19 21:00:00,68.0,64.9,29.52,SW,225,2.0,20.0,90,0.00,,,0.00,Weather View 32 v70,2013-04-20 01:00:00,
2013-04-19 21:05:00,68.0,64.9,29.52,SW,225,0.0,20.0,90,0.00,,,0.00,Weather View 32 v70,2013-04-20 01:05:00,
2013-04-19 21:10:00,68.0,64.9,29.51,South,180,13.0,20.0,90,0.00,,,0.00,Weather View 32 v70,2013-04-20 01:10:00,
2013-04-19 21:15:00,68.0,65.9,29.51,South,180,8.0,20.0,93,0.00,,,0.00,Weather View 32 v70,2013-04-20 01:15:00,
2013-04-19 21:20:00,68.0,65.9,29.49,SSW,202,11.0,21.0,93,0.00,,,0.00,Weather View 32 v70,2013-04-20 01:20:00,
2013-04-19 21:27:00,68.0,66.2,29.49,SW,225,2.0,21.0,94,0.00,,,0.00,Weather View 32 v70,2013-04-20 01:27:00,
2013-04-19 21:35:00,66.0,65.4,29.59,SW,225,6.0,21.0,98,0.08,,,0.08,Weather View 32 v70,2013-04-20 01:35:00,
2013-04-19 21:40:00,65.0,64.4,29.58,SW,225,5.0,21.0,98,0.11,,,0.11,Weather View 32 v70,2013-04-20 01:40:00,
2013-04-19 21:45:00,64.0,62.8,29.58,WSW,247,4.0,21.0,96,0.11,,,0.11,Weather View 32 v70,2013-04-20 01:45:00,
2013-04-19 21:50:00,64.0,63.4,29.59,SSW,202,2.0,21.0,98,0.13,,,0.13,Weather View 32 v70,2013-04-20 01:50:00,
2013-04-19 21:55:00,63.0,61.5,29.59,SW,225,3.0,21.0,95,0.14,,,0.14,Weather View 32 v70,2013-04-20 01:55:00,
2013-04-19 22:00:00,63.0,61.8,29.60,WSW,247,6.0,21.0,96,0.17,,,0.17,Weather View 32 v70,2013-04-20 02:00:00,
2013-04-19 22:10:00,62.0,60.5,29.63,WSW,247,6.0,21.0,95,0.19,,,0.19,Weather View 32 v70,2013-04-20 02:10:00,
2013-04-19 22:15:00,62.0,60.2,29.63,SSW,202,4.0,21.0,94,0.20,,,0.20,Weather View 32 v70,2013-04-20 02:15:00,
2013-04-19 22:20:00,62.0,60.2,29.61,SSW,202,5.0,21.0,94,0.22,,,0.22,Weather View 32 v70,2013-04-20 02:20:00,
2013-04-19 22:25:00,61.0,59.0,29.61,SSW,202,0.0,21.0,93,0.23,,,0.23,Weather View 32 v70,2013-04-20 02:25:00,
2013-04-19 22:30:00,61.0,58.7,29.61,SSW,202,1.0,21.0,92,0.24,,,0.24,Weather View 32 v70,2013-04-20 02:30:00,
2013-04-19 22:35:00,61.0,58.7,29.60,SSW,202,1.0,16.0,92,0.17,,,0.25,Weather View 32 v70,2013-04-20 02:35:00,
2013-04-19 22:45:00,61.0,58.7,29.61,SW,225,0.0,16.0,92,0.16,,,0.27,Weather View 32 v70,2013-04-20 02:45:00,
2013-04-19 22:50:00,61.0,59.0,29.61,SW,225,0.0,11.0,93,0.16,,,0.29,Weather View 32 v70,2013-04-20 02:50:00,
2013-04-19 22:55:00,61.0,58.7,29.61,South,180,0.0,11.0,92,0.17,,,0.31,Weather View 32 v70,2013-04-20 02:55:00,
2013-04-19 23:00:00,61.0,58.7,29.61,SSE,157,1.0,11.0,92,0.16,,,0.33,Weather View 32 v70,2013-04-20 03:00:00,
2013-04-19 23:05:00,61.0,58.3,29.61,SE,135,0.0,11.0,91,0.16,,,0.34,Weather View 32 v70,2013-04-20 03:05:00,
2013-04-19 23:10:00,61.0,58.7,29.61,SSW,202,0.0,11.0,92,0.16,,,0.35,Weather View 32 v70,2013-04-20 03:10:00,
2013-04-19 23:15:00,61.0,58.3,29.61,SSW,202,2.0,11.0,91,0.17,,,0.37,Weather View 32 v70,2013-04-20 03:15:00,
2013-04-19 23:25:00,61.0,58.3,29.61,SSW,202,7.0,10.0,91,0.18,,,0.41,Weather View 32 v70,2013-04-20 03:25:00,
2013-04-19 23:30:00,61.0,58.3,29.61,SSW,202,9.0,10.0,91,0.17,,,0.41,Weather View 32 v70,2013-04-20 03:30:00,
2013-04-19 23:35:00,61.0,58.3,29.63,SSW,202,2.0,10.0,91,0.18,,,0.43,Weather View 32 v70,2013-04-20 03:35:00,
2013-04-19 23:40:00,61.0,58.7,29.62,SSW,202,3.0,10.0,92,0.20,,,0.46,Weather View 32 v70,2013-04-20 03:40:00,
2013-04-19 23:45:00,61.0,58.3,29.62,SSW,202,5.0,10.0,91,0.20,,,0.47,Weather View 32 v70,2013-04-20 03:45:00,
2013-04-19 23:55:00,60.0,57.7,29.61,SSW,202,7.0,10.0,92,0.16,,,0.47,Weather View 32 v70,2013-04-20 03:55:00,